Year,Month,Day,Hour,Minute,Value (Times are PST for temperature in C)
2010,03,23,00,00,7.40
2010,03,23,00,01,7.40
2010,03,23,00,02,7.40
2010,03,23,00,03,7.40
2010,03,23,00,04,7.30
2010,03,23,00,05,7.30
2010,03,23,00,06,7.30
2010,03,23,00,07,7.30
2010,03,23,00,08,7.30
2010,03,23,00,09,7.30
2010,03,23,00,10,7.30
2010,03,23,00,11,7.30
2010,03,23,00,12,7.30
2010,03,23,00,13,7.30
2010,03,23,00,14,7.30
2010,03,23,00,15,7.30
2010,03,23,00,16,7.30
2010,03,23,00,17,7.30
2010,03,23,00,18,7.20
2010,03,23,00,19,7.20
2010,03,23,00,20,7.20
2010,03,23,00,21,7.20
2010,03,23,00,22,7.20
2010,03,23,00,23,7.10
2010,03,23,00,24,7.10
2010,03,23,00,25,7.10
2010,03,23,00,26,7.10
2010,03,23,00,27,7.10
2010,03,23,00,28,7.10
2010,03,23,00,29,7.10
2010,03,23,00,30,7.10
2010,03,23,00,31,7.10
2010,03,23,00,32,7.10
2010,03,23,00,33,7.10
2010,03,23,00,34,7.10
2010,03,23,00,35,7.10
2010,03,23,00,36,7.10
2010,03,23,00,37,7.10
2010,03,23,00,38,7.10
2010,03,23,00,39,7.10
2010,03,23,00,40,7.10
2010,03,23,00,41,7.10
2010,03,23,00,42,7.10
2010,03,23,00,43,7.10
2010,03,23,00,44,7.10
2010,03,23,00,45,7.10
2010,03,23,00,46,7.10
2010,03,23,00,47,7.10
2010,03,23,00,48,7.10
2010,03,23,00,49,7.10
2010,03,23,00,50,7.10
2010,03,23,00,51,7.10
2010,03,23,00,52,7.10
2010,03,23,00,53,7.10
2010,03,23,00,54,7.10
2010,03,23,00,55,7.10
2010,03,23,00,56,7.10
2010,03,23,00,57,7.10
2010,03,23,00,58,7.00
2010,03,23,00,59,7.00
2010,03,23,01,00,7.00
2010,03,23,01,01,7.00
2010,03,23,01,02,7.00
2010,03,23,01,03,7.00
2010,03,23,01,04,7.00
2010,03,23,01,05,7.00
2010,03,23,01,06,7.00
2010,03,23,01,07,7.00
2010,03,23,01,08,7.00
2010,03,23,01,09,6.90
2010,03,23,01,10,6.90
2010,03,23,01,11,6.90
2010,03,23,01,12,6.90
2010,03,23,01,13,6.90
2010,03,23,01,14,6.90
2010,03,23,01,15,6.80
2010,03,23,01,16,6.80
2010,03,23,01,17,6.80
2010,03,23,01,18,6.80
2010,03,23,01,19,6.80
2010,03,23,01,20,6.80
2010,03,23,01,21,6.80
2010,03,23,01,22,6.80
2010,03,23,01,23,6.80
2010,03,23,01,24,6.80
2010,03,23,01,25,6.80
2010,03,23,01,26,6.80
2010,03,23,01,27,6.90
2010,03,23,01,28,6.90
2010,03,23,01,29,6.90
2010,03,23,01,30,6.90
2010,03,23,01,31,6.90
2010,03,23,01,32,6.90
2010,03,23,01,33,6.80
2010,03,23,01,34,6.80
2010,03,23,01,35,6.80
2010,03,23,01,36,6.80
2010,03,23,01,37,6.80
2010,03,23,01,38,6.80
2010,03,23,01,39,6.80
2010,03,23,01,40,6.80
2010,03,23,01,41,6.70
2010,03,23,01,42,6.70
2010,03,23,01,43,6.70
2010,03,23,01,44,6.70
2010,03,23,01,45,6.70
2010,03,23,01,46,6.70
2010,03,23,01,47,6.70
2010,03,23,01,48,6.70
2010,03,23,01,49,6.70
2010,03,23,01,50,6.70
2010,03,23,01,51,6.70
2010,03,23,01,52,6.70
2010,03,23,01,53,6.70
2010,03,23,01,54,6.80
2010,03,23,01,55,6.80
2010,03,23,01,56,6.80
2010,03,23,01,57,6.80
2010,03,23,01,58,6.80
2010,03,23,01,59,6.80
2010,03,23,02,00,6.80
2010,03,23,02,01,6.70
2010,03,23,02,02,6.70
2010,03,23,02,03,6.70
2010,03,23,02,04,6.70
2010,03,23,02,05,6.70
2010,03,23,02,06,6.70
2010,03,23,02,07,6.70
2010,03,23,02,08,6.60
2010,03,23,02,09,6.60
2010,03,23,02,10,6.60
2010,03,23,02,11,6.60
2010,03,23,02,12,6.60
2010,03,23,02,13,6.50
2010,03,23,02,14,6.50
2010,03,23,02,15,6.50
2010,03,23,02,16,6.50
2010,03,23,02,17,6.50
2010,03,23,02,18,6.50
2010,03,23,02,19,6.50
2010,03,23,02,20,6.40
2010,03,23,02,21,6.40
2010,03,23,02,22,6.50
2010,03,23,02,23,6.40
2010,03,23,02,24,6.50
2010,03,23,02,25,6.40
2010,03,23,02,26,6.40
2010,03,23,02,27,6.40
2010,03,23,02,28,6.40
2010,03,23,02,29,6.40
2010,03,23,02,30,6.40
2010,03,23,02,31,6.40
2010,03,23,02,32,6.30
2010,03,23,02,33,6.30
2010,03,23,02,34,6.30
2010,03,23,02,35,6.30
2010,03,23,02,36,6.30
2010,03,23,02,37,6.30
2010,03,23,02,38,6.30
2010,03,23,02,39,6.30
2010,03,23,02,40,6.30
2010,03,23,02,41,6.20
2010,03,23,02,42,6.20
2010,03,23,02,43,6.20
2010,03,23,02,44,6.20
2010,03,23,02,45,6.20
2010,03,23,02,46,6.20
2010,03,23,02,47,6.10
2010,03,23,02,48,6.10
2010,03,23,02,49,6.10
2010,03,23,02,50,6.10
2010,03,23,02,51,6.10
2010,03,23,02,52,6.00
2010,03,23,02,53,6.00
2010,03,23,02,54,6.00
2010,03,23,02,55,6.00
2010,03,23,02,56,6.00
2010,03,23,02,57,5.90
2010,03,23,02,58,5.90
2010,03,23,02,59,5.90
2010,03,23,03,00,5.90
2010,03,23,03,01,5.90
2010,03,23,03,02,5.90
2010,03,23,03,03,5.90
2010,03,23,03,04,5.80
2010,03,23,03,05,5.90
2010,03,23,03,06,5.90
2010,03,23,03,07,5.90
2010,03,23,03,08,5.90
2010,03,23,03,09,5.90
2010,03,23,03,10,5.90
2010,03,23,03,11,5.90
2010,03,23,03,12,5.90
2010,03,23,03,13,5.90
2010,03,23,03,14,5.90
2010,03,23,03,15,5.90
2010,03,23,03,16,5.90
2010,03,23,03,17,5.90
2010,03,23,03,18,5.90
2010,03,23,03,19,5.90
2010,03,23,03,20,5.90
2010,03,23,03,21,5.90
2010,03,23,03,22,5.80
2010,03,23,03,23,5.80
2010,03,23,03,24,5.80
2010,03,23,03,25,5.80
2010,03,23,03,26,5.80
2010,03,23,03,27,5.80
2010,03,23,03,28,5.70
2010,03,23,03,29,5.70
2010,03,23,03,30,5.70
2010,03,23,03,31,5.70
2010,03,23,03,32,5.70
2010,03,23,03,33,5.70
2010,03,23,03,34,5.70
2010,03,23,03,35,5.70
2010,03,23,03,36,5.70
2010,03,23,03,37,5.70
2010,03,23,03,38,5.70
2010,03,23,03,39,5.70
2010,03,23,03,40,5.60
2010,03,23,03,41,5.60
2010,03,23,03,42,5.60
2010,03,23,03,43,5.60
2010,03,23,03,44,5.60
2010,03,23,03,45,5.60
2010,03,23,03,46,5.50
2010,03,23,03,47,5.50
2010,03,23,03,48,5.50
2010,03,23,03,49,5.40
2010,03,23,03,50,5.40
2010,03,23,03,51,5.40
2010,03,23,03,52,5.40
2010,03,23,03,53,5.40
2010,03,23,03,54,5.30
2010,03,23,03,55,5.30
2010,03,23,03,56,5.30
2010,03,23,03,57,5.30
2010,03,23,03,58,5.30
2010,03,23,03,59,5.30
2010,03,23,04,00,5.20
2010,03,23,04,01,5.20
2010,03,23,04,02,5.20
2010,03,23,04,03,5.10
2010,03,23,04,04,5.10
2010,03,23,04,05,5.10
2010,03,23,04,06,5.10
2010,03,23,04,07,5.10
2010,03,23,04,08,5.00
2010,03,23,04,09,4.90
2010,03,23,04,10,4.90
2010,03,23,04,11,4.90
2010,03,23,04,12,4.80
2010,03,23,04,13,4.80
2010,03,23,04,14,4.80
2010,03,23,04,15,4.80
2010,03,23,04,16,4.80
2010,03,23,04,17,4.70
2010,03,23,04,18,4.70
2010,03,23,04,19,4.70
2010,03,23,04,20,4.70
2010,03,23,04,21,4.70
2010,03,23,04,22,4.70
2010,03,23,04,23,4.70
2010,03,23,04,24,4.70
2010,03,23,04,25,4.70
2010,03,23,04,26,4.60
2010,03,23,04,27,4.60
2010,03,23,04,28,4.60
2010,03,23,04,29,4.50
2010,03,23,04,30,4.50
2010,03,23,04,31,4.50
2010,03,23,04,32,4.50
2010,03,23,04,33,4.50
2010,03,23,04,34,4.50
2010,03,23,04,35,4.50
2010,03,23,04,36,4.50
2010,03,23,04,37,4.50
2010,03,23,04,38,4.50
2010,03,23,04,39,4.40
2010,03,23,04,40,4.40
2010,03,23,04,41,4.40
2010,03,23,04,42,4.40
2010,03,23,04,43,4.30
2010,03,23,04,44,4.30
2010,03,23,04,45,4.30
2010,03,23,04,46,4.30
2010,03,23,04,47,4.20
2010,03,23,04,48,4.20
2010,03,23,04,49,4.20
2010,03,23,04,50,4.20
2010,03,23,04,51,4.30
2010,03,23,04,52,4.30
2010,03,23,04,53,4.30
2010,03,23,04,54,4.30
2010,03,23,04,55,4.20
2010,03,23,04,56,4.20
2010,03,23,04,57,4.20
2010,03,23,04,58,4.20
2010,03,23,04,59,4.20
2010,03,23,05,00,4.20
2010,03,23,05,01,4.20
2010,03,23,05,02,4.20
2010,03,23,05,03,4.20
2010,03,23,05,05,4.20
2010,03,23,05,06,4.20
2010,03,23,05,07,4.20
2010,03,23,05,08,4.30
2010,03,23,05,09,4.30
2010,03,23,05,10,4.40
2010,03,23,05,11,4.40
2010,03,23,05,12,4.40
2010,03,23,05,13,4.30
2010,03,23,05,14,4.30
2010,03,23,05,15,4.30
2010,03,23,05,16,4.30
2010,03,23,05,17,4.30
2010,03,23,05,18,4.30
2010,03,23,05,19,4.30
2010,03,23,05,20,4.30
2010,03,23,05,21,4.20
2010,03,23,05,22,4.20
2010,03,23,05,23,4.20
2010,03,23,05,24,4.10
2010,03,23,05,25,4.10
2010,03,23,05,26,4.00
2010,03,23,05,27,4.00
2010,03,23,05,28,3.90
2010,03,23,05,29,3.90
2010,03,23,05,30,3.80
2010,03,23,05,31,3.80
2010,03,23,05,32,3.80
2010,03,23,05,33,3.70
2010,03,23,05,34,3.70
2010,03,23,05,35,3.70
2010,03,23,05,36,3.60
2010,03,23,05,37,3.60
2010,03,23,05,38,3.60
2010,03,23,05,39,3.50
2010,03,23,05,40,3.50
2010,03,23,05,41,3.40
2010,03,23,05,42,3.40
2010,03,23,05,43,3.40
2010,03,23,05,44,3.40
2010,03,23,05,45,3.30
2010,03,23,05,46,3.30
2010,03,23,05,47,3.30
2010,03,23,05,48,3.30
2010,03,23,05,49,3.30
2010,03,23,05,50,3.30
2010,03,23,05,51,3.30
2010,03,23,05,52,3.30
2010,03,23,05,53,3.30
2010,03,23,05,54,3.30
2010,03,23,05,55,3.30
2010,03,23,05,56,3.30
2010,03,23,05,57,3.30
2010,03,23,05,58,3.40
2010,03,23,05,59,3.30
2010,03,23,06,00,3.30
2010,03,23,06,01,3.30
2010,03,23,06,02,3.40
2010,03,23,06,03,3.30
2010,03,23,06,04,3.30
2010,03,23,06,05,3.30
2010,03,23,06,06,3.20
2010,03,23,06,07,3.20
2010,03,23,06,08,3.20
2010,03,23,06,09,3.20
2010,03,23,06,10,3.20
2010,03,23,06,11,3.10
2010,03,23,06,12,3.10
2010,03,23,06,13,3.10
2010,03,23,06,14,3.10
2010,03,23,06,15,3.10
2010,03,23,06,16,3.10
2010,03,23,06,17,3.10
2010,03,23,06,18,3.10
2010,03,23,06,19,3.10
2010,03,23,06,20,3.10
2010,03,23,06,21,3.10
2010,03,23,06,22,3.10
2010,03,23,06,23,3.10
2010,03,23,06,24,3.00
2010,03,23,06,25,3.00
2010,03,23,06,26,3.00
2010,03,23,06,27,3.00
2010,03,23,06,28,2.90
2010,03,23,06,29,2.90
2010,03,23,06,30,2.90
2010,03,23,06,31,2.90
2010,03,23,06,32,2.90
2010,03,23,06,33,2.80
2010,03,23,06,34,2.80
2010,03,23,06,35,2.80
2010,03,23,06,36,2.80
2010,03,23,06,37,2.80
2010,03,23,06,38,2.80
2010,03,23,06,39,2.80
2010,03,23,06,40,2.70
2010,03,23,06,41,2.70
2010,03,23,06,42,2.70
2010,03,23,06,43,2.70
2010,03,23,06,44,2.70
2010,03,23,06,45,2.70
2010,03,23,06,46,2.60
2010,03,23,06,47,2.60
2010,03,23,06,48,2.60
2010,03,23,06,49,2.60
2010,03,23,06,50,2.60
2010,03,23,06,51,2.60
2010,03,23,06,52,2.60
2010,03,23,06,53,2.60
2010,03,23,06,54,2.50
2010,03,23,06,55,2.50
2010,03,23,06,56,2.50
2010,03,23,06,57,2.50
2010,03,23,06,58,2.40
2010,03,23,06,59,2.40
2010,03,23,07,00,2.40
2010,03,23,07,01,2.40
2010,03,23,07,02,2.30
2010,03,23,07,03,2.30
2010,03,23,07,04,2.30
2010,03,23,07,05,2.30
2010,03,23,07,06,2.30
2010,03,23,07,07,2.30
2010,03,23,07,08,2.30
2010,03,23,07,09,2.30
2010,03,23,07,10,2.20
2010,03,23,07,11,2.20
2010,03,23,07,12,2.20
2010,03,23,07,13,2.20
2010,03,23,07,14,2.20
2010,03,23,07,15,2.20
2010,03,23,07,16,2.20
2010,03,23,07,17,2.10
2010,03,23,07,18,2.10
2010,03,23,07,19,2.10
2010,03,23,07,20,2.10
2010,03,23,07,21,2.10
2010,03,23,07,22,2.10
2010,03,23,07,23,2.10
2010,03,23,07,24,2.10
2010,03,23,07,25,2.10
2010,03,23,07,26,2.10
2010,03,23,07,27,2.10
2010,03,23,07,28,2.10
2010,03,23,07,29,2.10
2010,03,23,07,30,2.10
2010,03,23,07,31,2.10
2010,03,23,07,32,2.10
2010,03,23,07,33,2.10
2010,03,23,07,34,2.10
2010,03,23,07,35,2.10
2010,03,23,07,36,2.20
2010,03,23,07,37,2.20
2010,03,23,07,38,2.20
2010,03,23,07,39,2.20
2010,03,23,07,40,2.20
2010,03,23,07,41,2.20
2010,03,23,07,42,2.20
2010,03,23,07,43,2.20
2010,03,23,07,44,2.20
2010,03,23,07,45,2.20
2010,03,23,07,46,2.20
2010,03,23,07,47,2.20
2010,03,23,07,48,2.20
2010,03,23,07,49,2.20
2010,03,23,07,50,2.20
2010,03,23,07,51,2.20
2010,03,23,07,52,2.20
2010,03,23,07,53,2.20
2010,03,23,07,54,2.20
2010,03,23,07,55,2.20
2010,03,23,07,56,2.30
2010,03,23,07,57,2.20
2010,03,23,07,58,2.30
2010,03,23,07,59,2.30
2010,03,23,08,00,2.30
2010,03,23,08,01,2.30
2010,03,23,08,02,2.30
2010,03,23,08,03,2.30
2010,03,23,08,04,2.30
2010,03,23,08,05,2.30
2010,03,23,08,06,2.30
2010,03,23,08,07,2.30
2010,03,23,08,08,2.40
2010,03,23,08,09,2.40
2010,03,23,08,10,2.40
2010,03,23,08,11,2.40
2010,03,23,08,12,2.40
2010,03,23,08,13,2.40
2010,03,23,08,14,2.50
2010,03,23,08,15,2.50
2010,03,23,08,16,2.50
2010,03,23,08,17,2.50
2010,03,23,08,18,2.60
2010,03,23,08,19,2.60
2010,03,23,08,20,2.60
2010,03,23,08,21,2.60
2010,03,23,08,22,2.60
2010,03,23,08,23,2.70
2010,03,23,08,24,2.70
2010,03,23,08,25,2.70
2010,03,23,08,26,2.70
2010,03,23,08,27,2.70
2010,03,23,08,28,2.80
2010,03,23,08,29,2.80
2010,03,23,08,30,2.80
2010,03,23,08,31,2.80
2010,03,23,08,32,2.90
2010,03,23,08,33,2.90
2010,03,23,08,34,2.90
2010,03,23,08,35,3.00
2010,03,23,08,36,3.00
2010,03,23,08,37,3.10
2010,03,23,08,38,3.10
2010,03,23,08,39,3.20
2010,03,23,08,40,3.20
2010,03,23,08,41,3.30
2010,03,23,08,42,3.30
2010,03,23,08,43,3.30
2010,03,23,08,44,3.40
2010,03,23,08,45,3.40
2010,03,23,08,46,3.50
2010,03,23,08,47,3.50
2010,03,23,08,48,3.60
2010,03,23,08,49,3.60
2010,03,23,08,50,3.60
2010,03,23,08,51,3.70
2010,03,23,08,52,3.70
2010,03,23,08,53,3.70
2010,03,23,08,54,3.70
2010,03,23,08,56,3.80
2010,03,23,08,57,3.80
2010,03,23,08,58,3.80
2010,03,23,08,59,3.90
2010,03,23,09,00,3.90
2010,03,23,09,01,3.90
2010,03,23,09,02,4.00
2010,03,23,09,03,4.00
2010,03,23,09,04,4.10
2010,03,23,09,05,4.10
2010,03,23,09,06,4.10
2010,03,23,09,07,4.10
2010,03,23,09,08,4.20
2010,03,23,09,09,4.20
2010,03,23,09,10,4.20
2010,03,23,09,11,4.30
2010,03,23,09,12,4.30
2010,03,23,09,13,4.40
2010,03,23,09,14,4.40
2010,03,23,09,15,4.40
2010,03,23,09,16,4.50
2010,03,23,09,17,4.50
2010,03,23,09,18,4.60
2010,03,23,09,19,4.70
2010,03,23,09,20,4.70
2010,03,23,09,21,4.80
2010,03,23,09,22,4.80
2010,03,23,09,23,4.80
2010,03,23,09,24,4.90
2010,03,23,09,25,5.00
2010,03,23,09,26,5.10
2010,03,23,09,27,5.20
2010,03,23,09,28,5.30
2010,03,23,09,29,5.30
2010,03,23,09,30,5.40
2010,03,23,09,31,5.50
2010,03,23,09,32,5.60
2010,03,23,09,33,5.60
2010,03,23,09,34,5.70
2010,03,23,09,35,5.70
2010,03,23,09,36,5.80
2010,03,23,09,37,5.80
2010,03,23,09,38,5.80
2010,03,23,09,39,5.80
2010,03,23,09,40,5.90
2010,03,23,09,41,5.90
2010,03,23,09,42,5.90
2010,03,23,09,43,6.00
2010,03,23,09,44,6.00
2010,03,23,09,45,6.10
2010,03,23,09,46,6.20
2010,03,23,09,47,6.20
2010,03,23,09,48,6.20
2010,03,23,09,49,6.30
2010,03,23,09,50,6.30
2010,03,23,09,51,6.30
2010,03,23,09,52,6.40
2010,03,23,09,53,6.50
2010,03,23,09,54,6.50
2010,03,23,09,55,6.60
2010,03,23,09,56,6.70
2010,03,23,09,57,6.80
2010,03,23,09,58,6.80
2010,03,23,09,59,6.90
2010,03,23,10,00,6.90
2010,03,23,10,01,7.00
2010,03,23,10,02,7.10
2010,03,23,10,03,7.20
2010,03,23,10,04,7.20
2010,03,23,10,05,7.30
2010,03,23,10,06,7.40
2010,03,23,10,07,7.50
2010,03,23,10,08,7.60
2010,03,23,10,09,7.70
2010,03,23,10,10,7.70
2010,03,23,10,11,7.70
2010,03,23,10,12,7.70
2010,03,23,10,13,7.80
2010,03,23,10,14,7.80
2010,03,23,10,15,7.90
2010,03,23,10,16,8.00
2010,03,23,10,17,8.10
2010,03,23,10,18,8.20
2010,03,23,10,19,8.30
2010,03,23,10,20,8.30
2010,03,23,10,21,8.40
2010,03,23,10,22,8.40
2010,03,23,10,23,8.50
2010,03,23,10,24,8.60
2010,03,23,10,25,8.70
2010,03,23,10,26,8.70
2010,03,23,10,27,8.80
2010,03,23,10,28,8.80
2010,03,23,10,29,8.90
2010,03,23,10,30,9.00
2010,03,23,10,31,9.10
2010,03,23,10,32,9.10
2010,03,23,10,33,9.20
2010,03,23,10,34,9.20
2010,03,23,10,35,9.30
2010,03,23,10,36,9.30
2010,03,23,10,37,9.30
2010,03,23,10,38,9.30
2010,03,23,10,39,9.30
2010,03,23,10,40,9.30
2010,03,23,10,41,9.40
2010,03,23,10,42,9.40
2010,03,23,10,43,9.40
2010,03,23,10,44,9.40
2010,03,23,10,45,9.50
2010,03,23,10,46,9.50
2010,03,23,10,47,9.50
2010,03,23,10,48,9.60
2010,03,23,10,49,9.60
2010,03,23,10,50,9.60
2010,03,23,10,51,9.60
2010,03,23,10,52,9.70
2010,03,23,10,53,9.80
2010,03,23,10,54,9.80
2010,03,23,10,55,9.90
2010,03,23,10,56,9.90
2010,03,23,10,57,9.90
2010,03,23,10,58,9.90
2010,03,23,10,59,10.00
2010,03,23,11,00,10.00
2010,03,23,11,01,10.10
2010,03,23,11,02,10.10
2010,03,23,11,03,10.20
2010,03,23,11,04,10.20
2010,03,23,11,05,10.30
2010,03,23,11,06,10.40
2010,03,23,11,07,10.50
2010,03,23,11,08,10.60
2010,03,23,11,09,10.60
2010,03,23,11,10,10.70
2010,03,23,11,11,10.70
2010,03,23,11,12,10.70
2010,03,23,11,13,10.70
2010,03,23,11,14,10.80
2010,03,23,11,15,10.80
2010,03,23,11,16,10.90
2010,03,23,11,17,11.00
2010,03,23,11,18,11.10
2010,03,23,11,19,11.10
2010,03,23,11,20,11.20
2010,03,23,11,21,11.30
2010,03,23,11,22,11.40
2010,03,23,11,23,11.40
2010,03,23,11,24,11.50
2010,03,23,11,25,11.60
2010,03,23,11,26,11.60
2010,03,23,11,27,11.60
2010,03,23,11,28,11.60
2010,03,23,11,29,11.60
2010,03,23,11,30,11.60
2010,03,23,11,31,11.60
2010,03,23,11,32,11.60
2010,03,23,11,33,11.70
2010,03,23,11,34,11.70
2010,03,23,11,35,11.80
2010,03,23,11,36,11.80
2010,03,23,11,37,11.90
2010,03,23,11,38,12.00
2010,03,23,11,39,12.10
2010,03,23,11,40,12.20
2010,03,23,11,41,12.20
2010,03,23,11,42,12.10
2010,03,23,11,43,12.10
2010,03,23,11,44,12.00
2010,03,23,11,45,11.90
2010,03,23,11,46,11.80
2010,03,23,11,47,11.70
2010,03,23,11,48,11.60
2010,03,23,11,49,11.60
2010,03,23,11,50,11.50
2010,03,23,11,51,11.50
2010,03,23,11,52,11.60
2010,03,23,11,53,11.70
2010,03,23,11,54,11.80
2010,03,23,11,55,11.80
2010,03,23,11,56,11.90
2010,03,23,11,57,11.90
2010,03,23,11,58,12.00
2010,03,23,11,59,12.10
2010,03,23,12,00,12.10
2010,03,23,12,01,12.20
2010,03,23,12,02,12.20
2010,03,23,12,03,12.20
2010,03,23,12,04,12.20
2010,03,23,12,05,12.30
2010,03,23,12,06,12.30
2010,03,23,12,07,12.20
2010,03,23,12,08,12.20
2010,03,23,12,09,12.20
2010,03,23,12,10,12.20
2010,03,23,12,11,12.20
2010,03,23,12,12,12.20
2010,03,23,12,13,12.10
2010,03,23,12,14,12.00
2010,03,23,12,15,12.00
2010,03,23,12,16,12.00
2010,03,23,12,17,12.00
2010,03,23,12,18,12.00
2010,03,23,12,19,11.90
2010,03,23,12,20,11.90
2010,03,23,12,21,11.90
2010,03,23,12,22,12.00
2010,03,23,12,23,12.00
2010,03,23,12,24,12.10
2010,03,23,12,25,12.10
2010,03,23,12,26,12.10
2010,03,23,12,27,12.10
2010,03,23,12,28,12.10
2010,03,23,12,29,12.00
2010,03,23,12,30,12.00
2010,03,23,12,31,12.00
2010,03,23,12,32,11.90
2010,03,23,12,33,12.00
2010,03,23,12,34,12.00
2010,03,23,12,35,12.10
2010,03,23,12,36,12.10
2010,03,23,12,37,12.20
2010,03,23,12,38,12.20
2010,03,23,12,39,12.30
2010,03,23,12,40,12.30
2010,03,23,12,41,12.30
2010,03,23,12,42,12.20
2010,03,23,12,43,12.20
2010,03,23,12,44,12.20
2010,03,23,12,45,12.20
2010,03,23,12,46,12.20
2010,03,23,12,47,12.20
2010,03,23,12,48,12.10
2010,03,23,12,49,12.10
2010,03,23,12,50,12.10
2010,03,23,12,51,12.10
2010,03,23,12,52,12.20
2010,03,23,12,53,12.20
2010,03,23,12,54,12.30
2010,03,23,12,55,12.30
2010,03,23,12,56,12.30
2010,03,23,12,57,12.30
2010,03,23,12,58,12.40
2010,03,23,12,59,12.40
2010,03,23,13,00,12.40
2010,03,23,13,01,12.40
2010,03,23,13,02,12.40
2010,03,23,13,03,12.40
2010,03,23,13,04,12.40
2010,03,23,13,05,12.40
2010,03,23,13,06,12.50
2010,03,23,13,07,12.60
2010,03,23,13,08,12.50
2010,03,23,13,09,12.40
2010,03,23,13,10,12.40
2010,03,23,13,11,12.30
2010,03,23,13,12,12.20
2010,03,23,13,13,12.20
2010,03,23,13,14,12.20
2010,03,23,13,15,12.20
2010,03,23,13,16,12.10
2010,03,23,13,17,12.10
2010,03,23,13,18,12.10
2010,03,23,13,19,12.10
2010,03,23,13,20,12.20
2010,03,23,13,21,12.10
2010,03,23,13,22,12.10
2010,03,23,13,23,12.00
2010,03,23,13,24,11.90
2010,03,23,13,25,11.90
2010,03,23,13,26,11.90
2010,03,23,13,27,11.90
2010,03,23,13,28,11.80
2010,03,23,13,29,11.80
2010,03,23,13,30,11.80
2010,03,23,13,31,11.80
2010,03,23,13,32,11.80
2010,03,23,13,33,11.80
2010,03,23,13,34,11.80
2010,03,23,13,35,11.80
2010,03,23,13,36,11.80
2010,03,23,13,37,11.80
2010,03,23,13,38,11.80
2010,03,23,13,39,11.80
2010,03,23,13,40,11.70
2010,03,23,13,41,11.70
2010,03,23,13,42,11.60
2010,03,23,13,43,11.60
2010,03,23,13,44,11.50
2010,03,23,13,45,11.60
2010,03,23,13,46,11.60
2010,03,23,13,47,11.60
2010,03,23,13,48,11.60
2010,03,23,13,49,11.60
2010,03,23,13,50,11.50
2010,03,23,13,51,11.50
2010,03,23,13,52,11.40
2010,03,23,13,53,11.50
2010,03,23,13,54,11.50
2010,03,23,13,55,11.50
2010,03,23,13,56,11.50
2010,03,23,13,57,11.50
2010,03,23,13,58,11.60
2010,03,23,13,59,11.60
2010,03,23,14,00,11.60
2010,03,23,14,01,11.60
2010,03,23,14,02,11.60
2010,03,23,14,03,11.70
2010,03,23,14,04,11.70
2010,03,23,14,05,11.70
2010,03,23,14,06,11.80
2010,03,23,14,07,11.80
2010,03,23,14,08,11.80
2010,03,23,14,09,11.90
2010,03,23,14,10,11.90
2010,03,23,14,11,11.90
2010,03,23,14,12,11.90
2010,03,23,14,13,11.80
2010,03,23,14,14,11.80
2010,03,23,14,15,11.80
2010,03,23,14,16,11.80
2010,03,23,14,17,11.80
2010,03,23,14,18,11.80
2010,03,23,14,19,11.80
2010,03,23,14,20,11.80
2010,03,23,14,21,11.90
2010,03,23,14,22,11.90
2010,03,23,14,23,11.90
2010,03,23,14,24,11.90
2010,03,23,14,25,11.90
2010,03,23,14,26,11.90
2010,03,23,14,27,11.80
2010,03,23,14,28,11.80
2010,03,23,14,29,11.80
2010,03,23,14,30,11.70
2010,03,23,14,31,11.70
2010,03,23,14,32,11.70
2010,03,23,14,33,11.70
2010,03,23,14,34,11.70
2010,03,23,14,35,11.70
2010,03,23,14,36,11.80
2010,03,23,14,37,11.80
2010,03,23,14,38,11.80
2010,03,23,14,39,11.90
2010,03,23,14,40,11.90
2010,03,23,14,41,11.90
2010,03,23,14,42,11.90
2010,03,23,14,43,11.90
2010,03,23,14,44,11.80
2010,03,23,14,45,11.80
2010,03,23,14,46,11.90
2010,03,23,14,47,12.00
2010,03,23,14,48,12.00
2010,03,23,14,49,12.10
2010,03,23,14,50,12.10
2010,03,23,14,51,12.10
2010,03,23,14,52,12.20
2010,03,23,14,53,12.20
2010,03,23,14,54,12.30
2010,03,23,14,55,12.30
2010,03,23,14,56,12.30
2010,03,23,14,57,12.30
2010,03,23,14,58,12.40
2010,03,23,14,59,12.30
2010,03,23,15,00,12.30
2010,03,23,15,01,12.30
2010,03,23,15,02,12.30
2010,03,23,15,03,12.30
2010,03,23,15,04,12.40
2010,03,23,15,05,12.40
2010,03,23,15,06,12.40
2010,03,23,15,07,12.40
2010,03,23,15,08,12.40
2010,03,23,15,09,12.30
2010,03,23,15,10,12.20
2010,03,23,15,11,12.20
2010,03,23,15,12,12.20
2010,03,23,15,13,12.20
2010,03,23,15,14,12.20
2010,03,23,15,15,12.20
2010,03,23,15,16,12.20
2010,03,23,15,17,12.20
2010,03,23,15,18,12.20
2010,03,23,15,19,12.20
2010,03,23,15,20,12.20
2010,03,23,15,21,12.20
2010,03,23,15,22,12.20
2010,03,23,15,23,12.20
2010,03,23,15,24,12.20
2010,03,23,15,25,12.30
2010,03,23,15,26,12.30
2010,03,23,15,27,12.30
2010,03,23,15,28,12.40
2010,03,23,15,29,12.40
2010,03,23,15,30,12.30
2010,03,23,15,31,12.30
2010,03,23,15,32,12.40
2010,03,23,15,33,12.50
2010,03,23,15,34,12.50
2010,03,23,15,35,12.50
2010,03,23,15,36,12.50
2010,03,23,15,37,12.50
2010,03,23,15,38,12.60
2010,03,23,15,39,12.60
2010,03,23,15,40,12.50
2010,03,23,15,41,12.50
2010,03,23,15,42,12.50
2010,03,23,15,43,12.50
2010,03,23,15,44,12.40
2010,03,23,15,45,12.30
2010,03,23,15,46,12.40
2010,03,23,15,47,12.40
2010,03,23,15,48,12.40
2010,03,23,15,49,12.40
2010,03,23,15,50,12.40
2010,03,23,15,51,12.50
2010,03,23,15,52,12.50
2010,03,23,15,53,12.60
2010,03,23,15,54,12.60
2010,03,23,15,55,12.70
2010,03,23,15,56,12.70
2010,03,23,15,57,12.70
2010,03,23,15,58,12.60
2010,03,23,15,59,12.60
2010,03,23,16,00,12.60
2010,03,23,16,01,12.60
2010,03,23,16,02,12.60
2010,03,23,16,03,12.60
2010,03,23,16,04,12.60
2010,03,23,16,05,12.50
2010,03,23,16,06,12.60
2010,03,23,16,07,12.60
2010,03,23,16,08,12.60
2010,03,23,16,09,12.60
2010,03,23,16,10,12.60
2010,03,23,16,11,12.60
2010,03,23,16,12,12.60
2010,03,23,16,13,12.60
2010,03,23,16,14,12.60
2010,03,23,16,15,12.70
2010,03,23,16,16,12.70
2010,03,23,16,17,12.70
2010,03,23,16,18,12.70
2010,03,23,16,19,12.70
2010,03,23,16,20,12.70
2010,03,23,16,21,12.70
2010,03,23,16,22,12.70
2010,03,23,16,23,12.70
2010,03,23,16,24,12.70
2010,03,23,16,25,12.70
2010,03,23,16,26,12.70
2010,03,23,16,27,12.70
2010,03,23,16,28,12.70
2010,03,23,16,29,12.70
2010,03,23,16,30,12.70
2010,03,23,16,31,12.70
2010,03,23,16,32,12.70
2010,03,23,16,33,12.70
2010,03,23,16,34,12.70
2010,03,23,16,35,12.70
2010,03,23,16,36,12.70
2010,03,23,16,37,12.80
2010,03,23,16,38,12.80
2010,03,23,16,39,12.80
2010,03,23,16,40,12.80
2010,03,23,16,41,12.80
2010,03,23,16,42,12.80
2010,03,23,16,43,12.80
2010,03,23,16,44,12.80
2010,03,23,16,45,12.80
2010,03,23,16,46,12.70
2010,03,23,16,47,12.70
2010,03,23,16,48,12.60
2010,03,23,16,49,12.60
2010,03,23,16,50,12.50
2010,03,23,16,51,12.50
2010,03,23,16,52,12.50
2010,03,23,16,53,12.60
2010,03,23,16,54,12.50
2010,03,23,16,55,12.50
2010,03,23,16,56,12.50
2010,03,23,16,57,12.60
2010,03,23,16,58,12.60
2010,03,23,16,59,12.60
2010,03,23,17,00,12.70
2010,03,23,17,01,12.70
2010,03,23,17,02,12.70
2010,03,23,17,03,12.70
2010,03,23,17,04,12.70
2010,03,23,17,05,12.70
2010,03,23,17,06,12.70
2010,03,23,17,07,12.70
2010,03,23,17,08,12.70
2010,03,23,17,09,12.70
2010,03,23,17,10,12.70
2010,03,23,17,11,12.60
2010,03,23,17,12,12.60
2010,03,23,17,13,12.60
2010,03,23,17,14,12.60
2010,03,23,17,15,12.70
2010,03,23,17,16,12.70
2010,03,23,17,17,12.70
2010,03,23,17,18,12.80
2010,03,23,17,19,12.80
2010,03,23,17,20,12.80
2010,03,23,17,21,12.80
2010,03,23,17,22,12.80
2010,03,23,17,23,12.80
2010,03,23,17,24,12.70
2010,03,23,17,25,12.70
2010,03,23,17,26,12.60
2010,03,23,17,27,12.50
2010,03,23,17,28,12.40
2010,03,23,17,29,12.40
2010,03,23,17,30,12.30
2010,03,23,17,31,12.30
2010,03,23,17,32,12.30
2010,03,23,17,33,12.20
2010,03,23,17,34,12.20
2010,03,23,17,35,12.20
2010,03,23,17,36,12.10
2010,03,23,17,37,12.10
2010,03,23,17,38,12.10
2010,03,23,17,39,12.00
2010,03,23,17,40,12.00
2010,03,23,17,41,12.00
2010,03,23,17,42,12.00
2010,03,23,17,43,12.00
2010,03,23,17,44,12.00
2010,03,23,17,45,12.00
2010,03,23,17,46,12.00
2010,03,23,17,47,12.00
2010,03,23,17,48,12.00
2010,03,23,17,49,11.90
2010,03,23,17,50,11.90